Location: Kelowna
(49.8880°N, 119.4960°W)
Time: 17:12:46
(UTC-07:00)

TIGRISAT - Pass Details

Date: 26 April 2024
Orbit: 584 x 655 km, 97.7° (Epoch: 11 June)

Event Time Altitude Azimuth Distance (km) Brightness Sun altitude
Rises 03:48:17 0° 138° (SE) 2,883 ? -16.0°
Reaches altitude 10° 03:50:39 10° 129° (SE) 1,969 ? -15.7°
Maximum altitude 03:54:26 31° 66° (ENE) 1,062 ? -15.3°
Drops below altitude 10° 03:58:09 10° 4° (N) 1,945 ? -14.8°
Sets 04:00:28 0° 355° (N) 2,842 ? -14.6°
